Content
SEND FEEDBACK

Daily
Averages
Monthly
Summary
United States of America

HOMER, ALASKA


Home > North America > United States > Alaska
Elevation: 62 feet     Latitude: 59 39N     Longitude: 151 29W

WEATHER
 
SELECT A DAY
Number of Records: 192,171;   Date Range: 1/1/95 - 9/18/14
 
SHARE

PRINT THIS DATA

[ ← Previous Day ]
WEATHER ALMANAC - FEBRUARY 13, 2013
[ Next Day → ]
[ °C ]   °F
Weather ElementAverageHighLow
Temperature32.9 °F39 °F (11:53 pm)28.4 °F (1:13 am)
Dewpoint28 °F30.2 °F (6:34 pm)23 °F (9:53 am)
Humidity82.6 %96 % (5:53 am)62 % (3:53 pm)
Barometer29.70 in29.79 in (6:53 am)29.51 in (11:53 pm)
Wind Speed6.6 mph19.6 mph (3:53 pm)
Wind Gust24.2 mph (9:53 pm)
Weather ElementAverage
Visibility8.4 mi
Wind DirectionNE (48.7 °)

Weather ElementTotal
Precipitation0.03 in
Heating Degree Days31.3 (Base 65)
Averaged from 39 records on February 13, 2013
WEATHER CONDITIONS BREAKOUT
WIND DIRECTION BREAKOUT
WEATHER BY HOUR - FEBRUARY 13, 2013
[ °C ]   °F
Local TimeTemperatureDewpointHumidityBarometerVisibilityWind DirectionWind SpeedGust SpeedPrecipitationEventsConditions
1:13 AM28.4 °F26.6 °F93 %29.74 in10.0 miEast (100°)4.6 mphOvercast
1:25 AM30.2 °F28.4 °F93 %29.75 in10.0 miESE (110°)3.5 mphOvercast
1:37 AM30.2 °F28.4 °F93 %29.75 in10.0 miEast (80°)3.5 mphOvercast
1:46 AM30.2 °F26.6 °F86 %29.75 in10.0 miCalmOvercast
1:53 AM30.0 °F27.0 °F88 %29.76 in10.0 miNNE (30°)3.5 mphOvercast
2:02 AM30.2 °F26.6 °F86 %29.75 in9.0 miNNE (30°)4.6 mphOvercast
3:35 AM30.2 °F28.4 °F93 %29.77 in5.0 miCalm0.00 inOvercast
3:53 AM30.0 °F28.0 °F92 %29.78 in2.5 miCalm0.00 inSnowLight Snow
4:05 AM30.2 °F28.4 °F93 %29.77 in4.0 miCalm0.00 inOvercast
4:13 AM30.2 °F28.4 °F93 %29.77 in4.0 miCalm0.00 inOvercast
4:53 AM30.0 °F28.0 °F92 %29.78 in7.0 miCalm0.00 inOvercast
5:53 AM28.9 °F28.0 °F96 %29.78 in10.0 miNE (50°)3.5 mphOvercast
6:00 AM30.2 °F26.6 °F86 %29.77 in10.0 miNE (40°)4.6 mphOvercast
6:16 AM30.2 °F26.6 °F86 %29.78 in10.0 miENE (60°)5.8 mphOvercast
6:53 AM28.9 °F26.1 °F89 %29.79 in10.0 miCalmMostly Cloudy
7:00 AM28.4 °F24.8 °F86 %29.78 in10.0 miNNE (30°)5.8 mphScattered Clouds
7:53 AM28.9 °F26.1 °F89 %29.78 in10.0 miNE (40°)4.6 mphPartly Cloudy
8:53 AM30.0 °F26.1 °F85 %29.78 in10.0 miEast (90°)8.1 mphClear
9:53 AM28.9 °F23.0 °F78 %29.76 in10.0 miNE (50°)5.8 mphPartly Cloudy
10:48 AM33.8 °F28.4 °F81 %29.76 in2.5 miEast (80°)5.8 mph0.00 inSnowLight Snow
10:53 AM33.1 °F28.0 °F82 %29.77 in3.0 miEast (100°)5.8 mph0.00 inSnowLight Snow
11:23 AM33.8 °F28.4 °F81 %29.75 in10.0 miNNE (30°)4.6 mph0.00 inSnowLight Snow
11:30 AM33.8 °F28.4 °F81 %29.75 in10.0 miNNE (20°)3.5 mph0.00 inPartly Cloudy
11:53 AM34.0 °F28.9 °F82 %29.75 in10.0 miENE (60°)5.8 mph0.00 inMostly Cloudy
12:53 PM34.0 °F30.0 °F85 %29.74 in3.0 miNE (40°)10.4 mph0.00 inSnowLight Snow
1:53 PM36.0 °F28.9 °F76 %29.73 in9.0 miNE (40°)4.6 mph0.00 inOvercast
2:53 PM37.9 °F27.0 °F65 %29.69 in10.0 miENE (70°)11.5 mphOvercast
3:53 PM37.9 °F26.1 °F62 %29.65 in10.0 miEast (80°)19.6 mph23.0 mphOvercast
4:53 PM35.1 °F30.0 °F82 %29.64 in9.0 miNE (50°)8.1 mph0.00 inOvercast
5:53 PM35.1 °F30.0 °F82 %29.61 in10.0 miENE (60°)12.7 mph0.00 inOvercast
6:34 PM35.6 °F30.2 °F81 %29.60 in4.0 miENE (60°)6.9 mph0.01 inSnowLight Snow
6:53 PM35.1 °F30.0 °F82 %29.59 in5.0 miNE (50°)10.4 mph0.01 inSnowLight Snow
7:53 PM37.0 °F28.9 °F73 %29.57 in10.0 miNE (50°)12.7 mph0.00 inOvercast
8:53 PM37.0 °F30.0 °F76 %29.55 in10.0 miENE (60°)12.7 mph20.7 mph0.01 inOvercast
9:21 PM37.4 °F30.2 °F75 %29.53 in10.0 miENE (70°)17.3 mph0.00 inMostly Cloudy
9:28 PM37.4 °F30.2 °F75 %29.53 in10.0 miEast (80°)13.8 mph0.00 inOvercast
9:53 PM37.9 °F28.9 °F70 %29.53 in10.0 miENE (70°)18.4 mph24.2 mph0.00 inOvercast
10:53 PM37.9 °F28.9 °F70 %29.53 in10.0 miENE (60°)3.5 mphOvercast
11:53 PM39.0 °F28.0 °F65 %29.51 in10.0 miENE (60°)10.4 mphOvercast
Hourly data recorded from PAHO, located miles away from Homer, Alaska







STORIES FROM OUR PARTNERS